GLOBALSTAR M081

Last updated on Sat Sep 05 2026 00:03:16 GMT+0000 (Coordinated Universal Time)

1 37743U 11033E 26247.57702367 -.00000092 00000+0 68101-4 0 9991 2 37743 51.9974 313.9278 0000473 124.0648 23.1565 12.62265956699968
UTC large
Height (km)
Speed (km/s)
/
Latitude / Longitude
Inclination (degrees)
Orbital Period (minutes)
Azimuth
Elevation
Range (km)
Doppler Factor

Next 0 passes for location: London (51.5072 / 0.1276)

No passes found over London.
GLOBALSTAR M081